Flag for Germany Weather past 2 weeks in Kamen, North Rhine-Westphalia, Germany

Now
41 °F

Clear.


Feels Like: 32 °F
Forecast: 41 / 48 °F
Wind: 18 mph from South

Location: Dortmund / Wickede

Current Time: Feb 28, 2015 at 10:46:50 PM

Latest Report: Feb 28, 2015 at 10:20 PM


Visibility: 10 mi

Pressure: 29.83 "Hg

Humidity: 53%

Dew point: 25 °F

Location of KamenLocation

Historic Weather in Kamen — Graph

°F

Kamen temperature yesterday

Maximum temperature yesterday: 43 °F (at 12:50 PM)
Minimum temperature yesterday: 34 °F (at 10:20 PM)
Average temperature yesterday: 40 °F

Past Weeks' High & Low Weather Summary

 TemperatureHumidityPressure
High54 °F (Feb 14, 1:20 PM)100% (Feb 18, 10:20 AM)30.74 "Hg (Feb 18, 10:20 AM)
Low27 °F (Feb 16, 5:50 AM)42% (Feb 28, 1:50 PM)29.33 "Hg (Feb 21, 5:20 AM)
Average39 °F76%29.96 "Hg
* Reported Feb 13 9:20 PM — Feb 28 9:20 PM, Kamen, Weather by CustomWeather, © 2015

Note: Actual official high and low records may vary slightly from our data, if they occured in-between our weather recording intervals... More about our weather records

Advertising

Kamen weather history for previous 24 hours

 ConditionsComfort  
Time TempWeatherWind HumidityBarometerVisibility
9:20 PM
Sat, Feb 28
41 °FClear.16 mph53%29.86 "Hg10 mi
8:50 PM41 °FClear.16 mph53%29.89 "Hg10 mi
8:20 PM41 °FClear.14 mph53%29.89 "Hg10 mi
7:50 PM41 °FClear.14 mph53%29.92 "Hg10 mi
7:20 PM41 °FClear.12 mph53%29.92 "Hg10 mi
6:50 PM41 °FClear.12 mph53%29.92 "Hg10 mi
6:20 PM41 °FPassing clouds.12 mph53%29.92 "HgN/A
5:50 PM43 °FSunny.10 mph49%29.95 "Hg10 mi
5:20 PM43 °FSunny.15 mph53%29.95 "Hg10 mi
4:50 PM45 °FSunny.14 mph46%29.95 "Hg10 mi
4:20 PM45 °FPassing clouds.15 mph46%29.98 "HgN/A
3:50 PM45 °FPassing clouds.14 mph46%29.98 "HgN/A
3:20 PM45 °FPassing clouds.13 mph42%30.01 "HgN/A
2:50 PM45 °FPassing clouds.14 mph42%30.01 "HgN/A
2:20 PM45 °FSunny.13 mph46%30.04 "Hg10 mi
1:50 PM45 °FSunny.16 mph42%30.04 "Hg10 mi
1:20 PM45 °FSunny.15 mph46%30.04 "Hg10 mi
12:50 PM43 °FSunny.15 mph53%30.07 "Hg10 mi
12:20 PM41 °FPassing clouds.15 mph57%30.07 "HgN/A
11:50 AM41 °FSunny.16 mph57%30.07 "Hg10 mi
11:20 AM41 °FSunny.15 mph66%30.09 "Hg10 mi
10:50 AM39 °FSunny.14 mph65%30.09 "Hg10 mi
10:20 AM37 °FSunny.14 mph75%30.09 "Hg10 mi
9:50 AM36 °FSunny.13 mph81%30.12 "Hg10 mi
9:20 AM36 °FSunny.12 mph81%30.12 "Hg10 mi
8:50 AM34 °FSunny.7 mph81%30.12 "Hg10 mi
8:20 AM32 °FPassing clouds.9 mph87%30.12 "HgN/A
7:50 AM32 °FSunny.8 mph87%30.12 "Hg10 mi
7:20 AM30 °FSunny.8 mph93%30.12 "Hg10 mi
6:50 AM30 °FClear.8 mph86%30.12 "Hg10 mi
6:20 AM30 °FClear.9 mph93%30.12 "Hg10 mi
5:50 AM30 °FPassing clouds.9 mph86%30.12 "HgN/A
5:20 AM30 °FClear.8 mph86%30.12 "Hg10 mi
10:50 PM
Fri, Feb 27
34 °FClear.6 mph81%30.12 "Hg10 mi
10:20 PM34 °FClear.5 mph81%30.12 "Hg10 mi
Weather by CustomWeather, © 2015

See weather overviewHow to use our weather pages